Showing default

BILSAT 1, 27943

Orbit data source: Space-Track

BILSAT 1, 27943 is a payload satellite owned by TUBITAK-BILTEN (TR) in SSO that was launched on Sat, 27 Sep 2003 UTC via a KOSMOS 11K65M launch vehicle from the Plesetsk Missile And Space Complex (PKMTR). Payload-class satellites include a variety of spacecraft equipped with specific instruments for various scientific and technological missions. These include communications satellites like Starlink; space stations such as the ISS; scientific satellites like the Hubble; Earth observation satellites from companies like Planet Labs, Umbra, and HawkEye 360; GPS; miniature CubeSats for education and research; and military/defense satellites.

Loading next visibility...
Identifier
27943, 2003-042E
Orbit
SSO
Country
Flag of UnknownUnknown / TURK
Related business
Manufacturer
SSTL
Mission
Civil Imaging
Bus & Motor
SSTL-100, Unknown motor
Mass
100 kg wet, 100 kg dry
Launch date (UTC)
2003-09-27 (22 years ago)
Launch vehicle
KOSMOS 11K65M
Launch site
Plesetsk Missile And Space Complex (PKMTR)
Object type
Payload
Rocket body
Debris
Shape & HBR
Box + 1 Arm, 3.3 m
Radar Cross Section
0.540 m², Medium (>0.1 m² and < 1m²)

Expand to show TLE details & history
Last TLE update: 1 day ago

TLE from 1 day ago
0 BILSAT 1
1 27943U 03042E   25353.06350682  .00000358  00000-0  73276-4 0  9997
2 27943  98.3767 154.1588 0010597 189.5632 170.5371 14.66878705187715
Epoch: 2025-12-19T01:31Z
TLE epoch observation values (Epoch: 2025-12-19T01:31:26.989Z)
Latitude
-0.00003°
Longitude
43.38631°
Altitude
681.409 km
Speed
7.512 km/s
True Right ascension
10h 16m 38s
True Declination
0° 00' 00"
Sunlit
Object was in daylight at epoch
Visualization orbit readout
Latitude
Unknown
Longitude
Unknown
Altitude
Unknown
Speed
Unknown
Apparent Right ascension
Unknown
Apparent Declination
Unknown
Sunlit
N/A
Visualization observer readout
Local Sidereal Time
00:41:00
Azimuth
Unknown
Elevation
Unknown
Doppler factor
Unknown
Orbital elements
Apogee altitude
675.597 km
Perigee altitude
660.663 km
Semi-major axis
7,046.267 km
Eccentricity
0.00106
Inclination
98.3767°
RAAN
154.1588°
Arg. of periapsis
189.5632°
True anomaly
170.55704°
Mean anomaly
170.5371°
Eccentric anomaly
170.54707°
Mean motion
3.66948 °/min
Orbital period
98.11 mins
BSTAR
0.000073276
Loading maneuver chart data...
Computing Atmospheric mass density...
Loading historical data...
Loading historical data...
Loading historical data...
Loading historical data...
Loading historical data...
Loading historical data...
Loading historical data...

Documentation

Showing up to 5 results
|